Location: Poughquag
(41.6090°N, 73.6820°W)
Time: 23:09:29
(UTC-05:00)

Tiros 1 despin weight - Pass Details

Date: 07 December 2023
Orbit: 581 x 624 km, 48.2° (Epoch: 21 February)

Event Time Altitude Azimuth Distance (km) Brightness Sun altitude
Rises 19:19:34 0° 280° (W) 2,801 ? -31.9°
Reaches altitude 10° 19:22:01 10° 290° (WNW) 1,898 ? -32.4°
Enters shadow 19:23:31 19° 302° (WNW) 1,403 ? -32.7°
